Stations météo

réclame
Mon MeteoGroup
Boulogne, France (7002): Température de l'air & dewpoint: 11.01.2018 01:00:00 - 17.01.2018 01:00:00 (CET)Boulogne, France (7002): Vitesse du vent & gusts: 11.01.2018 01:00:00 - 17.01.2018 01:00:00 (CET)Boulogne, France (7002): Direction du vent: 11.01.2018 01:00:00 - 17.01.2018 01:00:00 (CET)Boulogne, France (7002): reduced air pressure: 11.01.2018 01:00:00 - 17.01.2018 01:00:00 (CET)Boulogne, France (7002): visibility: 11.01.2018 01:00:00 - 17.01.2018 01:00:00 (CET)Boulogne, France (7002): Quantités de précipitations: 11.01.2018 01:00:00 - 17.01.2018 01:00:00 (CET)
Date & Time tt [°C] td [°C] ff [km/h] ff [knt] fx [km/h] fx [knt] dd ppp [hPa] vv [km] rr [mm]
17.01.2018 01:00:00 5,9 -0,6 56 31 90 48 W 996,1 7 0,0
17.01.2018 00:00:00 5,6 -0,5 58 32 90 48 W 996,2 - 0,0
16.01.2018 23:00:00 5,8 1,5 49 27 77 42 W 995,5 - 0,0
16.01.2018 22:00:00 6,0 0,9 54 29 82 44 W 995,5 7 0,0
16.01.2018 21:00:00 6,8 2,5 51 27 73 39 W 995,6 - 0,0
16.01.2018 20:00:00 6,6 2,5 38 21 73 40 W 995,9 - 0,0
16.01.2018 19:00:00 6,7 2,2 38 21 68 37 WSW 996,2 - 0,0
16.01.2018 18:00:00 6,9 0,6 49 26 74 40 W 996,9 - 0,0
16.01.2018 17:00:00 6,9 0,3 47 25 79 43 W 997,0 - 0,0
16.01.2018 16:00:00 7,1 1,0 50 27 78 42 W 997,3 16 0,0
16.01.2018 15:00:00 7,4 1,9 51 27 87 47 W 997,2 - 0,0
16.01.2018 14:00:00 7,3 1,6 48 26 83 45 W 997,5 - 0,0
16.01.2018 13:00:00 7,0 1,7 52 28 83 45 W 998,0 16 0,0
16.01.2018 12:00:00 6,9 2,6 51 27 80 43 W 998,1 - 0,0
16.01.2018 11:00:00 7,5 1,3 48 26 83 45 W 997,5 - 0,0
16.01.2018 10:00:00 7,2 0,8 59 32 86 46 W 997,2 16 0,0
16.01.2018 09:00:00 6,8 2,1 57 31 89 48 W 996,5 - 0,0
16.01.2018 08:00:00 7,1 3,2 51 28 74 40 W 995,4 - 0,0
16.01.2018 07:00:00 7,7 3,7 48 26 75 41 W 994,6 6 0,0
16.01.2018 06:00:00 8,0 4,2 49 26 81 44 W 994,4 - 0,0
16.01.2018 05:00:00 8,0 4,6 41 22 74 40 W 994,6 - 0,0
16.01.2018 04:00:00 8,4 5,1 47 26 72 39 W 995,0 - 0,0
16.01.2018 03:00:00 8,5 4,5 42 23 66 36 W 995,0 - 0,0
16.01.2018 02:00:00 8,1 4,5 36 19 69 37 W 995,7 - 0,0
16.01.2018 01:00:00 7,8 5,1 34 19 64 34 WSW 996,4 6 0,0
16.01.2018 00:00:00 7,8 3,8 46 25 82 45 W 997,0 - 0,0
15.01.2018 23:00:00 8,3 4,7 50 27 77 42 W 996,8 - 0,0
15.01.2018 22:00:00 8,1 4,3 49 27 77 41 W 996,4 6 0,0
15.01.2018 21:00:00 8,1 4,5 42 23 73 40 W 996,4 - 0,0
15.01.2018 20:00:00 8,7 5,4 51 28 80 43 W 995,5 - 0,0
15.01.2018 19:00:00 9,0 7,1 44 24 68 37 W 994,3 6 0,2
15.01.2018 18:00:00 9,1 8,0 40 21 70 38 W 993,8 - 0,2
15.01.2018 17:00:00 9,4 8,6 44 24 77 42 WSW 993,3 - 0,2
15.01.2018 16:00:00 8,8 8,3 43 23 77 42 SW 993,7 - 0,2
15.01.2018 15:00:00 7,6 7,0 40 21 84 45 SSW 994,8 - 2,5
15.01.2018 14:00:00 7,3 6,6 42 23 77 41 S 996,4 - 2,2
15.01.2018 13:00:00 6,7 6,0 39 21 74 40 S 998,8 - -
15.01.2018 12:00:00 6,6 5,5 43 23 84 46 S 1001,3 - 0,2
15.01.2018 11:00:00 6,2 5,2 41 22 82 44 S 1003,0 - 1,2
15.01.2018 10:00:00 6,6 4,9 41 22 75 41 S 1004,7 6 0,8
15.01.2018 09:00:00 6,6 4,4 39 21 74 40 SSW 1006,0 - 0,0
15.01.2018 08:00:00 6,4 4,4 33 18 70 38 SSW 1007,8 - 0,0
15.01.2018 07:00:00 6,4 4,6 34 18 67 36 SSW 1009,0 6 0,0
15.01.2018 06:00:00 6,2 4,5 28 15 58 31 SSW 1010,4 - 0,0
15.01.2018 05:00:00 6,4 4,2 33 18 65 35 SW 1011,7 - 0,0
15.01.2018 04:00:00 5,6 4,2 36 19 61 33 SW 1012,8 - 0,0
15.01.2018 03:00:00 4,7 3,8 27 15 57 31 SSW 1013,6 - 0,0
15.01.2018 02:00:00 5,5 3,5 29 16 51 28 SSW 1014,7 - 0,0
15.01.2018 01:00:00 6,0 3,2 26 14 41 22 SSW 1015,6 - 0,0
15.01.2018 00:00:00 5,8 3,0 22 12 39 21 SSW 1016,0 - 0,0
14.01.2018 23:00:00 5,6 2,6 18 10 35 19 SW 1017,0 - 0,0
14.01.2018 22:00:00 5,1 2,4 16 8 34 18 SSW 1017,4 6 0,0
14.01.2018 21:00:00 4,4 2,3 16 9 29 16 SW 1017,9 - 0,0
14.01.2018 20:00:00 3,4 1,6 9 5 16 9 S 1017,9 - 0,0
14.01.2018 19:00:00 2,8 0,8 8 4 18 10 S 1017,7 4,0 0,0
14.01.2018 18:00:00 3,6 1,5 10 6 18 10 S 1017,6 - 0,0
14.01.2018 17:00:00 3,5 0,9 6 3 10 5 SW 1018,0 - 0,0
14.01.2018 16:00:00 4,3 1,3 6 3 12 7 W 1017,7 - 0,0
14.01.2018 15:00:00 4,3 1,0 7 4 12 7 W 1017,7 - 0,0
14.01.2018 14:00:00 5,1 1,2 5 3 10 5 W 1017,8 - 0,0
14.01.2018 13:00:00 5,3 1,0 5 3 13 7 SSE 1017,9 6 0,0
14.01.2018 12:00:00 4,1 0,4 5 3 16 9 ESE 1018,5 - 0,0
14.01.2018 11:00:00 3,0 0,1 9 5 16 9 SE 1018,6 - 0,0
14.01.2018 10:00:00 1,7 -0,1 6 3 14 7 ESE 1018,4 6 0,0
14.01.2018 09:00:00 1,3 -0,3 6 3 17 9 E 1018,0 - 0,0
14.01.2018 08:00:00 1,7 -0,2 11 6 22 12 E 1017,8 - 0,0
14.01.2018 07:00:00 1,9 0,0 14 7 29 15 E 1017,7 10 0,0
14.01.2018 06:00:00 2,0 0,1 18 10 29 15 ENE 1017,8 - 0,0
14.01.2018 05:00:00 2,3 0,2 19 10 29 16 ENE 1018,1 - 0,0
14.01.2018 04:00:00 2,5 0,2 20 11 31 17 ENE 1018,3 - 0,0
14.01.2018 03:00:00 2,3 0,0 20 11 29 16 ENE 1018,4 - 0,0
14.01.2018 02:00:00 2,5 0,1 19 11 28 15 ENE 1018,5 - 0,0
14.01.2018 01:00:00 2,9 -0,2 15 8 23 12 ENE 1018,9 - 0,0
14.01.2018 00:00:00 3,5 -0,2 14 8 31 17 ENE 1019,2 - 0,0
13.01.2018 23:00:00 4,0 0,1 12 6 31 17 E 1019,6 - 0,0
13.01.2018 22:00:00 4,0 0,3 14 8 30 16 ESE 1019,9 10 0,0
13.01.2018 21:00:00 4,1 0,6 14 8 27 15 ESE 1020,2 - 0,0
13.01.2018 20:00:00 4,1 0,6 14 8 29 16 ESE 1020,1 - 0,0
13.01.2018 19:00:00 3,9 0,8 10 6 31 17 ESE 1020,1 10 0,0
13.01.2018 18:00:00 3,7 0,9 14 7 35 19 SE 1020,0 - 0,0
13.01.2018 17:00:00 3,5 1,0 21 11 38 20 ESE 1019,9 - 0,0
13.01.2018 16:00:00 3,5 1,5 18 10 43 23 ESE 1020,0 4,0 0,0
13.01.2018 15:00:00 4,0 1,9 24 13 44 24 SE 1020,0 - 0,0
13.01.2018 14:00:00 5,1 2,3 18 10 44 24 SE 1020,4 - 0,0
13.01.2018 13:00:00 5,2 2,4 26 14 41 22 SE 1021,1 - 0,0
13.01.2018 12:00:00 4,5 2,5 22 12 41 22 SE 1021,9 - 0,0
13.01.2018 11:00:00 5,1 2,3 20 11 39 21 SE 1021,9 - 0,0
13.01.2018 10:00:00 3,9 1,9 22 12 38 21 ESE 1022,1 4,0 0,0
13.01.2018 09:00:00 3,7 1,9 13 7 28 15 SE 1022,2 - 0,0
13.01.2018 08:00:00 4,2 2,1 15 8 31 17 SE 1022,2 - 0,0
13.01.2018 07:00:00 4,1 1,6 20 11 31 17 ESE 1022,3 10 0,0
13.01.2018 06:00:00 4,0 1,7 13 7 23 12 ESE 1022,6 - 0,0
13.01.2018 05:00:00 4,0 1,9 12 7 20 11 ESE 1023,1 - 0,0
13.01.2018 04:00:00 4,4 2,1 9 5 29 15 SE 1023,6 10 0,0
13.01.2018 03:00:00 4,7 2,4 13 7 29 16 S 1024,2 - 0,0
13.01.2018 02:00:00 4,9 2,3 15 8 31 17 SSE 1024,6 - 0,0
13.01.2018 01:00:00 5,2 2,4 12 7 30 16 S 1025,1 10 0,0
13.01.2018 00:00:00 5,3 2,6 15 8 28 15 S 1025,2 - 0,0
12.01.2018 23:00:00 5,5 2,7 15 8 31 17 SE 1025,5 - 0,0
12.01.2018 22:00:00 5,9 2,9 12 7 26 14 SSE 1025,9 10 0,0
12.01.2018 21:00:00 6,0 3,2 7 4 20 11 SE 1025,9 - 0,0
12.01.2018 20:00:00 6,4 3,2 11 6 20 11 ESE 1025,9 - 0,0
12.01.2018 19:00:00 6,4 3,2 5 3 15 8 E 1026,1 6 0,0
12.01.2018 18:00:00 6,1 3,1 6 3 16 9 E 1026,3 - 0,0
12.01.2018 17:00:00 6,5 3,5 10 5 15 8 E 1026,2 - 0,0
12.01.2018 16:00:00 6,8 3,8 6 3 15 8 E 1026,4 6 0,0
12.01.2018 15:00:00 7,4 4,4 5 3 13 7 SSE 1026,4 - 0,0
12.01.2018 14:00:00 7,2 4,0 6 4 15 8 ESE 1026,4 - 0,0
12.01.2018 13:00:00 7,2 4,2 7 4 23 12 SE 1026,8 6 0,0
12.01.2018 12:00:00 7,5 4,6 5 3 20 11 ESE 1027,0 - 0,0
12.01.2018 11:00:00 6,2 4,5 9 5 21 12 ESE 1027,3 - 0,0
12.01.2018 10:00:00 5,4 4,5 8 4 15 8 ESE 1027,1 - 0,0
12.01.2018 09:00:00 5,1 4,7 10 5 19 11 E 1026,8 - 0,0
12.01.2018 08:00:00 5,1 4,8 9 5 14 8 E 1027,1 - 0,0
12.01.2018 07:00:00 5,0 4,7 6 4 10 5 ESE 1026,9 - 0,0
12.01.2018 06:00:00 4,9 4,6 4 2 11 6 E 1026,7 - 0,0
12.01.2018 05:00:00 4,8 4,5 3 2 18 10 ENE 1026,3 - 0,0
12.01.2018 04:00:00 4,6 4,3 5 3 25 13 ENE 1025,9 - 0,0
12.01.2018 03:00:00 4,4 4,1 7 4 19 11 ENE 1025,7 - 0,0
12.01.2018 02:00:00 4,1 3,8 8 4 23 12 ENE 1025,8 - 0,0
12.01.2018 01:00:00 4,2 3,8 8 4 21 11 NE 1025,4 10 0,0
12.01.2018 00:00:00 4,5 4,1 9 5 24 13 NNE 1025,2 - 0,0
11.01.2018 23:00:00 5,0 4,4 14 8 24 13 ENE 1024,4 - 0,0
11.01.2018 22:00:00 5,5 4,5 13 7 19 10 ENE 1024,1 10 0,0
11.01.2018 21:00:00 6,1 5,1 5 3 10 6 NNE 1023,5 - 0,0
11.01.2018 20:00:00 6,4 5,7 5 3 11 6 N 1023,0 - 0,0
11.01.2018 19:00:00 6,1 5,4 8 4 16 8 NNW 1022,3 - 0,0
11.01.2018 18:00:00 5,9 4,9 8 4 17 9 NE 1021,3 - 0,0
11.01.2018 17:00:00 6,4 5,2 10 5 17 9 NNE 1020,4 - 0,0
11.01.2018 16:00:00 7,0 5,9 6 3 17 9 N 1019,7 - 0,0
11.01.2018 15:00:00 6,9 6,2 6 4 14 8 NNW 1019,2 - 0,0
11.01.2018 14:00:00 6,4 5,7 2 1 6 4 WNW 1018,4 - 0,0
11.01.2018 13:00:00 6,6 5,9 3 1 9 5 NW 1018,0 7 0,0
11.01.2018 12:00:00 5,9 5,0 4 2 14 8 W 1017,6 - 0,0
11.01.2018 11:00:00 7,0 6,3 3 2 9 5 NNE 1016,7 - 0,0
11.01.2018 10:00:00 5,5 4,8 4 2 7 4 NW 1016,0 7 0,0
11.01.2018 09:00:00 5,5 4,8 4 2 7 4 NNE 1014,9 - 0,0
11.01.2018 08:00:00 4,3 3,3 0 0 9 5 N 1014,0 - 0,0
11.01.2018 07:00:00 4,0 3,0 7 4 9 5 E 1012,9 10 0,0
11.01.2018 06:00:00 5,5 4,6 4 2 8 4 ENE 1012,0 - 0,0
11.01.2018 05:00:00 5,6 4,7 6 3 12 7 SE 1011,4 - 0,0
11.01.2018 04:00:00 5,6 4,7 10 5 15 8 SE 1010,7 10 0,0
11.01.2018 03:00:00 5,1 4,2 8 5 13 7 SE 1010,4 - 0,0
11.01.2018 02:00:00 5,6 4,7 11 6 14 8 ESE 1009,5 - 0,0
11.01.2018 01:00:00 6,0 5,1 9 5 15 8 ESE 1009,4 10 0,0

tt = Température de l'air
td = dewpoint
ff = Vitesse du vent
fx = gusts
dd = Direction du vent
ppp = reduced air pressure
vv = visibility
rr = Quantités de précipitations

stations d'obs. à proximité